Observations for Trim Market St
| Time | AQI | Temp °C | Hum % | Pres Pa | CO μg/m³ | H₂S μg/m³ | NO μg/m³ | NO₂ μg/m³ | O₃ μg/m³ | SO₂ μg/m³ | PM1 μg/m³ | PM2.5 μg/m³ | PM10 μg/m³ |
|---|---|---|---|---|---|---|---|---|---|---|---|---|---|
| Friday 21 August 2026 | |||||||||||||
| 06:13 | 2 | 9.6 | 81 | 2,147,483,647 | 0.6 | 0 | 10.02 | 12.38 | 29.17 | 0 | 0.71 | 2.53 | 5.29 |
| 06:12 | 2 | 9.6 | 81 | 2,147,483,647 | 0.6 | 0 | 9.13 | 12.25 | 29.08 | 0 | 1.43 | 2.06 | 4.73 |
| 06:10 | 2 | 9.6 | 81 | 2,147,483,647 | 0.63 | 0 | 9.23 | 13.99 | 25.82 | 0 | 0.71 | 2.06 | 5.29 |
| 06:06 | 2 | 9.7 | 81 | 2,147,483,647 | 0.58 | 0 | 5.71 | 13.47 | 28.45 | 0 | 0.71 | 2.07 | 5.85 |
| 06:05 | 2 | 9.7 | 81 | 2,147,483,647 | 0.58 | 0 | 5.83 | 12.05 | 30.93 | 0 | 0 | 1.59 | 4.17 |
| 06:04 | 2 | 9.7 | 81 | 2,147,483,647 | 0.57 | 0 | 6.46 | 12.29 | 30.23 | 0 | 0.71 | 1.59 | 4.72 |
| 06:03 | 2 | 9.7 | 81 | 2,147,483,647 | 0.59 | 0 | 5.77 | 12.16 | 30.21 | 0 | 0.71 | 2.07 | 4.72 |
| 06:02 | 2 | 9.7 | 81 | 2,147,483,647 | 0.57 | 0 | 4.55 | 11.92 | 31.78 | 0 | 0.71 | 2.54 | 5.29 |
| 06:01 | 2 | 9.7 | 81 | 2,147,483,647 | 0.57 | 0 | 4.93 | 12.28 | 30.38 | 0 | 0.71 | 1.59 | 5.29 |
| 06:00 | 2 | 9.7 | 81 | 2,147,483,647 | 0.57 | 0 | 4.3 | 11.49 | 32.43 | 0 | 1.43 | 3.48 | 6.41 |
| 05:59 | 2 | 9.7 | 81 | 2,147,483,647 | 0.58 | 0 | 4.5 | 12.7 | 30.38 | 0 | 1.43 | 3.01 | 5.85 |
| 05:58 | 2 | 9.7 | 81 | 2,147,483,647 | 0.57 | 0 | 4.74 | 12.28 | 30.1 | 0 | 0.71 | 2.54 | 6.41 |
| 05:57 | 2 | 9.7 | 81 | 2,147,483,647 | 0.58 | 0 | 4.58 | 12.28 | 30.1 | 0 | 0.71 | 2.07 | 4.72 |
| 05:56 | 2 | 9.7 | 81 | 2,147,483,647 | 0.56 | 0 | 4.88 | 12.28 | 30.6 | 0 | 1.43 | 2.07 | 5.29 |
| 05:54 | 2 | 9.7 | 81 | 2,147,483,647 | 0.57 | 0 | 27.71 | 12.28 | 29.96 | 0 | 0 | 2.07 | 4.72 |
| 05:53 | 2 | 9.7 | 81 | 2,147,483,647 | 0.57 | 0 | 61.43 | 12.85 | 30.05 | 0 | 0 | 1.12 | 3.6 |
| 05:51 | 2 | 9.7 | 81 | 2,147,483,647 | 0.61 | 0 | 52.73 | 31.3 | 2.05 | 0 | 1.43 | 2.54 | 5.85 |
| 05:50 | 2 | 9.7 | 81 | 2,147,483,647 | 0.66 | 0 | 50.9 | 35.49 | 0 | 0 | 0.71 | 3.01 | 5.85 |
| 05:48 | 2 | 9.7 | 81 | 2,147,483,647 | 0.57 | 0 | 10.69 | 14.84 | 25.11 | 0 | 1.43 | 3.48 | 6.97 |
| 05:47 | 2 | 9.8 | 81 | 2,147,483,647 | 0.58 | 0 | 10.63 | 13.22 | 30.19 | 0 | 1.43 | 3.01 | 5.85 |